Le nostre stazioni meteo in Italia

Pubblicità
Il mio iltempo24.it
Novara/Cameri, Italia (16064): Temperatura & dewpoint: 21.05.2018 03:00:00 - 27.05.2018 03:00:00 (CEST)Novara/Cameri, Italia (16064): velocità del vento: 21.05.2018 03:00:00 - 27.05.2018 03:00:00 (CEST)Novara/Cameri, Italia (16064): direzione del vento: 21.05.2018 03:00:00 - 27.05.2018 03:00:00 (CEST)Novara/Cameri, Italia (16064): reduced air pressure: 21.05.2018 03:00:00 - 27.05.2018 03:00:00 (CEST)Novara/Cameri, Italia (16064): visibility: 21.05.2018 03:00:00 - 27.05.2018 03:00:00 (CEST)Novara/Cameri, Italia (16064): ore di luce: 21.05.2018 03:00:00 - 27.05.2018 03:00:00 (CEST)
Data & Tempo tt [°C] td [°C] ff [km/h] ff [kn] dd ppp [hPa] vv [km] sd [min]
27.05.2018 03:00:00 - - - - - - - -
27.05.2018 02:00:00 - - - - - - - -
27.05.2018 01:00:00 - - - - - - - -
27.05.2018 00:00:00 - - - - - - - -
26.05.2018 23:00:00 - - - - - - - -
26.05.2018 22:00:00 - - - - - - - -
26.05.2018 21:00:00 - - - - - - - -
26.05.2018 20:00:00 - - - - - - - -
26.05.2018 19:00:00 - - - - - - - -
26.05.2018 18:00:00 - - - - - - - -
26.05.2018 17:00:00 - - - - - - - -
26.05.2018 16:00:00 - - - - - - - -
26.05.2018 15:00:00 - - - - - - - -
26.05.2018 14:00:00 - - - - - - - -
26.05.2018 13:00:00 - - - - - - - -
26.05.2018 12:00:00 - - - - - - - -
26.05.2018 11:00:00 - - - - - - - -
26.05.2018 10:00:00 - - - - - - - -
26.05.2018 09:00:00 - - - - - - - -
26.05.2018 08:00:00 - - - - - - - -
26.05.2018 07:00:00 - - - - - - - -
26.05.2018 06:00:00 - - - - - - - -
26.05.2018 05:00:00 - - - - - - - -
26.05.2018 04:00:00 - - - - - - - -
26.05.2018 03:00:00 - - - - - - - -
26.05.2018 02:00:00 - - - - - - - -
26.05.2018 01:00:00 - - - - - - - -
26.05.2018 00:00:00 - - - - - - - -
25.05.2018 23:00:00 - - - - - - - -
25.05.2018 22:00:00 - - - - - - - -
25.05.2018 21:00:00 - - - - - - - -
25.05.2018 20:00:00 26,4 15,5 5 3 SSO 1014,1 20 60
25.05.2018 19:00:00 27,0 15,0 9 5 SO - 10 -
25.05.2018 18:00:00 28,0 17,0 11 6 O - 10 -
25.05.2018 17:00:00 27,6 15,3 9 5 SO 1014,5 20 60
25.05.2018 16:00:00 27,0 16,0 9 5 O - 10 -
25.05.2018 15:00:00 27,0 17,0 13 7 OSO - 10 -
25.05.2018 14:00:00 26,2 16,2 9 5 OSO 1015,0 20 60
25.05.2018 13:00:00 26,0 15,0 8 4 SO - 10 -
25.05.2018 12:00:00 25,0 15,0 4 2 - - 10 -
25.05.2018 11:00:00 23,4 15,7 5 3 NE 1015,8 20 60
25.05.2018 10:00:00 22,0 14,0 5 3 N - 10 -
25.05.2018 09:00:00 20,0 14,0 8 4 N - 10 -
25.05.2018 08:00:00 17,8 13,7 13 7 N 1016,5 20 -
25.05.2018 07:00:00 16,0 13,0 8 4 N - 10 -
25.05.2018 06:00:00 - - - - - - - -
25.05.2018 05:00:00 - - - - - - - -
25.05.2018 04:00:00 - - - - - - - -
25.05.2018 03:00:00 - - - - - - - -
25.05.2018 02:00:00 - - - - - - - -
25.05.2018 01:00:00 - - - - - - - -
25.05.2018 00:00:00 - - - - - - - -
24.05.2018 23:00:00 - - - - - - - -
24.05.2018 22:00:00 - - - - - - - -
24.05.2018 21:00:00 - - - - - - - -
24.05.2018 20:00:00 25,0 13,6 8 4 SO 1014,6 20 48
24.05.2018 19:00:00 25,0 14,0 5 3 SO - 10 -
24.05.2018 18:00:00 26,0 14,0 5 3 O - 10 -
24.05.2018 17:00:00 25,6 15,0 8 4 OSO 1015,0 20 60
24.05.2018 16:00:00 25,0 15,0 5 3 - - 10 -
24.05.2018 15:00:00 25,0 15,0 8 4 OSO - 10 -
24.05.2018 14:00:00 24,6 15,0 11 6 SSO 1016,4 15 60
24.05.2018 13:00:00 24,0 15,0 8 4 OSO - 10 -
24.05.2018 12:00:00 23,0 15,0 8 4 SO - 10 -
24.05.2018 11:00:00 21,8 14,4 8 4 OSO 1017,2 20 60
24.05.2018 10:00:00 20,0 14,0 4 2 - - 10 -
24.05.2018 09:00:00 19,0 14,0 8 4 NNO - 10 -
24.05.2018 08:00:00 16,4 14,2 8 4 NNO 1017,4 15 -
24.05.2018 07:00:00 14,0 13,0 8 4 NNO - 10 -
24.05.2018 06:00:00 - - - - - - - -
24.05.2018 05:00:00 - - - - - - - -
24.05.2018 04:00:00 - - - - - - - -
24.05.2018 03:00:00 - - - - - - - -
24.05.2018 02:00:00 - - - - - - - -
24.05.2018 01:00:00 - - - - - - - -
24.05.2018 00:00:00 - - - - - - - -
23.05.2018 23:00:00 - - - - - - - -
23.05.2018 22:00:00 - - - - - - - -
23.05.2018 21:00:00 - - - - - - - -
23.05.2018 20:00:00 23,4 13,9 4 2 N 1015,5 20 36
23.05.2018 19:00:00 24,0 14,0 4 2 - - 10 -
23.05.2018 18:00:00 24,0 14,0 5 3 - - 10 -
23.05.2018 17:00:00 24,0 14,1 4 2 N 1015,6 15 60
23.05.2018 16:00:00 23,0 14,0 8 4 SO - 10 -
23.05.2018 15:00:00 23,0 14,0 9 5 S - 10 -
23.05.2018 14:00:00 22,8 14,4 5 3 N 1016,6 15 36
23.05.2018 13:00:00 21,0 14,0 5 3 NNE - 10 -
23.05.2018 12:00:00 20,0 14,0 4 2 - - 10 -
23.05.2018 11:00:00 19,0 13,6 4 2 N 1017,1 10 0
23.05.2018 10:00:00 18,0 14,0 8 4 N - 10 -
23.05.2018 09:00:00 17,0 14,0 11 6 N - 10 -
23.05.2018 08:00:00 15,6 13,6 8 4 N 1016,7 8 -
23.05.2018 07:00:00 15,0 13,0 4 2 - - 6 -
23.05.2018 06:00:00 - - - - - - - -
23.05.2018 05:00:00 - - - - - - - -
23.05.2018 04:00:00 - - - - - - - -
23.05.2018 03:00:00 - - - - - - - -
23.05.2018 02:00:00 - - - - - - - -
23.05.2018 01:00:00 - - - - - - - -
23.05.2018 00:00:00 - - - - - - - -
22.05.2018 23:00:00 - - - - - - - -
22.05.2018 22:00:00 - - - - - - - -
22.05.2018 21:00:00 - - - - - - - -
22.05.2018 20:00:00 16,8 15,2 4 2 N 1014,7 6 0
22.05.2018 19:00:00 17,0 14,0 4 2 - - 7 -
22.05.2018 18:00:00 17,0 14,0 8 4 NO - 10 -
22.05.2018 17:00:00 17,4 15,0 13 7 ONO 1014,7 5 0
22.05.2018 16:00:00 17,0 15,0 11 6 ONO - 5 -
22.05.2018 15:00:00 18,0 15,0 8 4 ONO - 6 -
22.05.2018 14:00:00 18,4 14,1 8 4 SSE 1014,6 6 0
22.05.2018 13:00:00 18,0 14,0 11 6 E - 7 -
22.05.2018 12:00:00 18,0 15,0 13 7 E - 5 -
22.05.2018 11:00:00 17,0 15,2 9 5 N 1014,0 5 0
22.05.2018 10:00:00 16,0 14,0 8 4 N - 5 -
22.05.2018 09:00:00 16,0 14,0 8 4 NNE - 5 -
22.05.2018 08:00:00 15,6 14,1 5 3 NNO 1013,3 5 -
22.05.2018 07:00:00 16,0 14,0 8 4 OSO - 5 -
22.05.2018 06:00:00 - - - - - - - -
22.05.2018 05:00:00 - - - - - - - -
22.05.2018 04:00:00 - - - - - - - -
22.05.2018 03:00:00 - - - - - - - -
22.05.2018 02:00:00 - - - - - - - -
22.05.2018 01:00:00 - - - - - - - -
22.05.2018 00:00:00 - - - - - - - -
21.05.2018 23:00:00 - - - - - - - -
21.05.2018 22:00:00 - - - - - - - -
21.05.2018 21:00:00 - - - - - - - -
21.05.2018 20:00:00 22,0 10,5 2 1 N 1012,4 20 48
21.05.2018 19:00:00 22,0 12,0 9 5 NE - 10 -
21.05.2018 18:00:00 22,0 11,0 13 7 N - 10 -
21.05.2018 17:00:00 22,4 11,5 18 10 NNO 1013,1 20 24
21.05.2018 16:00:00 22,0 11,0 13 7 NNO - 10 -
21.05.2018 15:00:00 22,0 12,0 16 9 NNO - 10 -
21.05.2018 14:00:00 21,6 12,5 16 9 NNO 1015,0 20 48
21.05.2018 13:00:00 21,0 12,0 18 10 NNO - 10 -
21.05.2018 12:00:00 20,0 13,0 16 9 N - 10 -
21.05.2018 11:00:00 18,2 11,5 21 11 N 1016,4 10 18
21.05.2018 10:00:00 18,0 12,0 16 9 N - 10 -
21.05.2018 09:00:00 17,0 12,0 18 10 N - 10 -
21.05.2018 08:00:00 15,2 11,4 15 8 N 1016,6 10 -
21.05.2018 07:00:00 14,0 11,0 15 8 N - 10 -
21.05.2018 06:00:00 - - - - - - - -
21.05.2018 05:00:00 - - - - - - - -
21.05.2018 04:00:00 - - - - - - - -
21.05.2018 03:00:00 - - - - - - - -

tt = Temperatura
td = dewpoint
ff = velocità del vento
dd = direzione del vento
ppp = reduced air pressure
vv = visibility
sd = ore di luce

Stazioni seguenti

WeatherPro
AMSI
MeteoEarth